Location: Cabrera Baja
(40.4089°N, 4.3354°W)
Time: 03:21:47
(UTC+00:00)

Spot 1 - Pass Details

Date: 14 July 2020
Orbit: 575 x 777 km, 98.7° (Epoch: 03 August)

Event Time Altitude Azimuth Distance (km) Brightness Sun altitude
Exits shadow 01:48:09 79° 235° (SW) 737 4.2 -24.9°
Maximum altitude 01:48:15 80° 256° (WSW) 735 4.2 -24.9°
Drops below altitude 10° 01:53:00 10° 344° (NNW) 2,149 7.5 -24.5°
Sets 01:55:11 0° 346° (NNW) 3,037 8.4 -24.4°
